[[{"header":{"parameterUnit":"m.s-1","parameterCategory":1,"la1":30.2991,"la2":30.254,"lo1":-89.0895,"lo2":-89.0444,"dy":0.0017,"dx":0.0017,"nx":28,"ny":28,"refTime":"2024-06-19T09:00:00:Z","depth":0,"parameterNumber":2,"parameterNumberName":"U-component_of_WINDS"},"data":[0,0,0,0,0,0,0,0,0,0,0,0,0,0,0,0,0,0,0,0,0,0,0,0,0,0,0,0,0,0,0,0,0,0,0,0,0,0,0,0,0,0,0,0,0,0,0,0,0,0,0,0,0,0,0,0,0,0,-9.1382,-9.1382,0,-9.1423,-9.1424,-9.1424,-9.1243,-9.1238,-9.1233,-9.1228,-9.1271,-9.1277,-9.1283,0,0,0,0,0,0,0,0,0,0,0,0,0,-9.1147,-9.1153,-9.1381,-9.1382,-9.1383,-9.1423,-9.1424,-9.1424,-9.1244,-9.1238,-9.1231,-9.1225,-9.1269,-9.1276,-9.1283,0,0,0,0,0,0,0,0,0,0,0,0,0,-9.1225,-9.1154,-9.1381,-9.1298,-9.129,-9.1423,-9.1424,-9.1424,-9.1245,-9.1237,-9.1229,-9.1222,-9.1267,-9.1275,-9.1284,-9.15,0,0,-9.1312,-9.1316,0,0,0,0,0,0,0,0,-9.1221,-9.1234,-9.1309,-9.1304,-9.1296,-9.132,-9.1357,-9.145,-9.1247,-9.1263,-9.1227,-9.1218,-9.1294,-9.13,-9.1325,-9.1502,-9.1504,-9.1313,-9.1319,-9.1323,-9.1325,0,0,0,0,0,0,0,-9.1216,-9.1231,-9.1398,-9.1311,-9.1302,-9.1258,-9.1261,-9.1374,-9.1322,-9.1261,-9.1248,-9.1255,-9.1288,-9.1317,-9.1325,-9.1504,-9.1313,-9.1321,-9.1327,-9.133,-9.1862,-9.187,0,0,0,0,0,0,-9.1221,-9.1228,-9.1396,-9.1399,-9.1238,-9.1269,-9.1271,-9.132,-9.132,-9.1313,-9.1262,-9.1246,-9.1305,-9.1315,-9.1326,-9.1579,-9.1323,-9.1331,-9.1336,-9.1853,-9.1864,-9.1873,0,0,0,0,0,0,-9.1217,-9.1238,-9.1395,-9.131,-9.1327,-9.1281,-9.1338,-9.1325,-9.1353,-9.1321,-9.1311,-9.13,-9.1299,-9.1313,-9.1458,-9.1578,-9.1335,-9.1344,-9.1843,-9.1856,-9.1868,-9.2087,0,0,0,0,0,0,-9.1211,-9.1238,-9.1319,-9.1313,-9.1332,-9.1527,-9.1345,-9.1332,-9.137,-9.135,-9.1355,-9.1348,-9.1294,-9.1446,-9.1468,-9.1586,-9.1351,-9.1832,-9.1849,-9.1864,-9.2069,-9.2106,-9.2137,0,0,0,0,0,-9.1203,-9.1378,-9.1324,-9.1345,-9.1432,-9.1534,-9.1545,-9.1479,-9.138,-9.1461,-9.1441,-9.1348,-9.1562,-9.1462,-9.1485,-9.1608,-9.1824,-9.1844,-9.1863,-9.2053,-9.2099,-9.2137,0,0,0,0,0,0,-9.1398,-9.1376,-9.1315,-9.1493,-9.1517,-9.1503,-9.1603,-9.1529,-9.1581,-9.156,-9.1477,-9.148,-9.164,-9.1638,-9.1528,-9.1818,-9.1676,-9.1701,-9.1813,-9.1855,-9.1889,-9.1886,-9.1358,0,0,0,0,0,-9.1462,-9.1547,-9.1522,-9.1682,-9.1697,-9.1649,-9.1691,-9.1639,-9.166,-9.1669,-9.1659,-9.1684,-9.1756,-9.1805,-9.187,-9.2068,-9.2067,-9.2164,-9.2199,-9.2227,-9.225,-9.2355,-9.2399,-9.1937,-9.1937,-9.1936,0,0,-9.1595,-9.1593,-9.1651,-9.1721,-9.1733,-9.1823,-9.1659,-9.176,-9.1826,-9.1684,-9.1821,-9.1815,-9.1837,-9.201,-9.2086,-9.2014,-9.2377,-9.2252,-9.2275,-9.2282,-9.238,-9.2424,-9.2463,-9.195,-9.1948,-9.1945,0,0,-9.1882,-9.1889,-9.2023,-9.204,-9.206,-9.2027,-9.206,-9.2058,-9.2049,-9.2185,-9.2081,-9.2159,-9.2285,-9.2306,-9.2333,-9.2631,-9.2548,-9.2655,-9.2834,-9.2938,-9.2974,-9.3006,-9.3113,-9.3153,-9.2677,-9.2678,-9.2678,0,-9.2044,-9.2175,-9.2102,-9.2211,-9.2246,-9.2122,-9.2258,-9.2277,-9.2319,-9.2346,-9.2265,-9.2422,-9.2428,-9.2605,-9.2678,-9.2704,-9.2739,-9.2653,-9.2975,-9.3006,-9.3035,-9.3136,-9.3177,-9.2691,-9.2689,-9.2688,-9.2687,0,-9.2374,-9.2467,-9.2573,-9.2616,-9.2663,-9.2785,-9.2732,-9.2788,-9.2732,-9.2709,-9.285,-9.2853,-9.2917,-9.2955,-9.2901,-9.3125,-9.308,-9.2989,-9.2844,-9.3093,-9.3187,-9.3225,-9.2709,-9.2705,-9.2701,-9.2697,0,0,-9.2783,-9.2787,-9.2827,-9.2846,-9.2861,-9.2931,-9.3049,-9.3112,-9.3162,-9.3196,-9.3293,-9.3404,-9.332,-9.3351,-9.3299,-9.3391,-9.3628,-9.3287,-9.3287,-9.3351,-9.3877,-9.3946,-9.3992,-9.3574,-9.3581,-9.3586,-9.3875,0,-9.3066,-9.3266,-9.3205,-9.3407,-9.3493,-9.3378,-9.348,-9.3501,-9.3483,-9.3553,-9.3532,-9.3613,-9.3496,-9.3514,-9.3599,-9.3581,-9.3733,-9.356,-9.3664,-9.3668,-9.3662,-9.404,-9.4113,-9.4385,-9.3911,-9.3917,-9.3922,0,-9.3421,-9.3469,-9.3681,-9.3683,-9.3717,-9.381,-9.3864,-9.3932,-9.3954,-9.3934,-9.3971,-9.3901,-9.4017,-9.3873,-9.4033,-9.3917,-9.3956,-9.3954,-9.3963,-9.397,-9.381,-9.4058,-9.447,-9.4512,-9.3979,-9.3974,-9.397,0,-9.37,-9.3818,-9.3959,-9.3979,-9.3985,-9.4054,-9.406,-9.4074,-9.4117,-9.4164,-9.4191,-9.4252,-9.4285,-9.4334,-9.4283,-9.4182,-9.4452,-9.4303,-9.4439,-9.4441,-9.45,-9.4497,-9.4925,-9.4526,-9.4526,-9.4525,-9.4524,0,-9.4021,-9.4155,-9.4085,-9.4172,-9.432,-9.4249,-9.4397,-9.4389,-9.4404,-9.4488,-9.4393,-9.4474,-9.4401,-9.4477,-9.4437,-9.4577,-9.4592,-9.458,-9.4568,-9.4589,-9.4591,-9.4613,-9.4593,-9.4536,-9.4533,-9.4531,-9.4529,0,-9.4357,-9.4315,-9.4463,-9.4457,-9.4459,-9.4568,-9.4563,-9.4644,-9.4619,-9.4728,-9.4749,-9.4712,-9.4796,-9.4749,-9.4836,-9.4809,-9.499,-9.4952,-9.4983,-9.4973,-9.5112,-9.51,-9.557,-9.5628,-9.5192,-9.5196,-9.52,0,-9.4565,-9.4665,-9.4671,-9.4721,-9.4734,-9.4815,-9.4858,-9.4793,-9.4842,-9.4877,-9.4954,-9.503,-9.5087,-9.5227,-9.5208,-9.5274,-9.5237,-9.5397,-9.5246,-9.5265,-9.524,-9.5235,-9.5245,-9.5428,-9.5433,-9.5437,-9.544,0,-9.4939,-9.4914,-9.4979,-9.504,-9.5094,-9.5138,-9.5174,-9.522,-9.5156,-9.5216,-9.5301,-9.5346,-9.5435,-9.5512,-9.5569,-9.5575,-9.5499,-9.5488,-9.5523,-9.5545,-9.5559,-9.5554,-9.5066,-9.5477,-9.5474,-9.5471,-9.5469,-9.5467,-9.5217,-9.5301,-9.5319,-9.5396,-9.5417,-9.5453,-9.553,-9.5515,-9.5585,-9.5652,-9.561,-9.5711,-9.5732,-9.5801,-9.5818,-9.5896,-9.5832,-9.5883,-9.5896,-9.5909,-9.5929,-9.5547,-9.5906,-9.5905,-9.5904,-9.5903,-9.5902,0,-9.5586,-9.5592,-9.5664,-9.5718,-9.5779,-9.5701,-9.5738,-9.5794,-9.5884,-9.591,-9.5969,-9.6068,-9.6143,-9.6131,-9.6199,-9.6264,-9.6231,-9.6285,-9.6279,-9.6282,-9.5982,-9.5945,-9.6311,-9.6311,-9.631,-9.631,-9.631,-9.631,-9.5785,-9.5925,-9.5902,-9.6052,-9.6056,-9.6154,-9.6182,-9.6216,-9.6236,-9.6351,-9.6413,-9.6404,-9.6416,-9.6484,-9.655,-9.6545,-9.6575,-9.6642,-9.6624,-9.6343,-9.6303,-9.6264,-9.6229,-9.6649,-9.6649,-9.6917,-9.692,-9.6922]},{"header":{"parameterUnit":"m.s-1","parameterCategory":1,"la1":30.2991,"la2":30.254,"lo1":-89.0895,"lo2":-89.0444,"dy":0.0017,"dx":0.0017,"nx":28,"ny":28,"refTime":"2024-06-19T09:00:00:Z","depth":0,"parameterNumber":3,"parameterNumberName":"V-component_of_WINDS"},"data":[0,0,0,0,0,0,0,0,0,0,0,0,0,0,0,0,0,0,0,0,0,0,0,0,0,0,0,0,0,0,0,0,0,0,0,0,0,0,0,0,0,0,0,0,0,0,0,0,0,0,0,0,0,0,0,0,0,0,-2.0313,-2.0312,0,-2.0244,-2.0243,-2.0242,-2.0175,-2.0174,-2.0173,-2.0173,-2.0104,-2.0103,-2.0102,0,0,0,0,0,0,0,0,0,0,0,0,0,-2.0386,-2.0385,-2.0313,-2.0312,-2.0311,-2.0244,-2.0243,-2.0242,-2.0175,-2.0174,-2.0173,-2.0172,-2.0104,-2.0103,-2.0102,0,0,0,0,0,0,0,0,0,0,0,0,0,-2.0339,-2.0384,-2.0313,-2.027,-2.0265,-2.0244,-2.0243,-2.0242,-2.0175,-2.0174,-2.0173,-2.0172,-2.0105,-2.0103,-2.0102,-2.0119,0,0,-2.0097,-2.0096,0,0,0,0,0,0,0,0,-2.0342,-2.0337,-2.0277,-2.0273,-2.0267,-2.0217,-2.0243,-2.0201,-2.0176,-2.021,-2.0173,-2.0171,-2.0143,-2.0138,-2.0128,-2.0115,-2.0113,-2.0097,-2.0096,-2.0095,-2.0095,0,0,0,0,0,0,0,-2.0345,-2.0339,-2.0286,-2.0276,-2.027,-2.0253,-2.0245,-2.0235,-2.0184,-2.0207,-2.0201,-2.0194,-2.014,-2.013,-2.0126,-2.0111,-2.0097,-2.0096,-2.0095,-2.0094,-2.0105,-2.0107,0,0,0,0,0,0,-2.0355,-2.0342,-2.0288,-2.0284,-2.0302,-2.0253,-2.0244,-2.0234,-2.0184,-2.0175,-2.0195,-2.0191,-2.0133,-2.0128,-2.0123,-2.0137,-2.0095,-2.0094,-2.0093,-2.0104,-2.0106,-2.0107,0,0,0,0,0,0,-2.0357,-2.0351,-2.0291,-2.0311,-2.0303,-2.0253,-2.0243,-2.0234,-2.0223,-2.0176,-2.0166,-2.0194,-2.0132,-2.0125,-2.0119,-2.0134,-2.0093,-2.0092,-2.0103,-2.0105,-2.0106,-2.0168,0,0,0,0,0,0,-2.0359,-2.0352,-2.0359,-2.0312,-2.0302,-2.0289,-2.0244,-2.0233,-2.0221,-2.0215,-2.0172,-2.0164,-2.013,-2.0122,-2.0118,-2.0131,-2.0091,-2.0101,-2.0104,-2.0106,-2.0164,-2.0171,-2.0178,0,0,0,0,0,-2.0362,-2.038,-2.0359,-2.0353,-2.0309,-2.029,-2.0284,-2.0244,-2.0222,-2.0228,-2.0196,-2.0165,-2.0133,-2.0122,-2.0117,-2.013,-2.01,-2.0103,-2.0106,-2.0161,-2.017,-2.0177,0,0,0,0,0,0,-2.0431,-2.0373,-2.035,-2.0353,-2.0326,-2.0278,-2.0285,-2.0255,-2.0234,-2.023,-2.0181,-2.0172,-2.0171,-2.015,-2.0138,-2.0142,-2.0112,-2.0114,-2.0156,-2.0164,-2.0171,-2.0176,-2.0089,0,0,0,0,0,-2.0446,-2.0435,-2.0385,-2.0393,-2.0381,-2.0335,-2.0325,-2.0296,-2.0267,-2.0256,-2.0224,-2.0198,-2.0181,-2.0171,-2.0154,-2.016,-2.0149,-2.0166,-2.0173,-2.0179,-2.0181,-2.018,-2.0187,-2.0116,-2.0116,-2.0116,0,0,-2.0479,-2.0445,-2.0442,-2.0406,-2.0382,-2.0371,-2.0326,-2.0318,-2.0309,-2.0255,-2.0246,-2.0222,-2.0189,-2.0188,-2.0187,-2.017,-2.0198,-2.0182,-2.0187,-2.0186,-2.0184,-2.019,-2.0197,-2.0118,-2.0117,-2.0117,0,0,-2.0531,-2.0506,-2.0508,-2.0484,-2.0447,-2.0416,-2.0416,-2.0372,-2.0353,-2.0343,-2.0302,-2.029,-2.0263,-2.024,-2.0225,-2.0264,-2.0234,-2.026,-2.0296,-2.0295,-2.0301,-2.0305,-2.0318,-2.0323,-2.0262,-2.0262,-2.0262,0,-2.0576,-2.0558,-2.0513,-2.0505,-2.049,-2.0438,-2.0439,-2.0418,-2.0379,-2.0369,-2.0351,-2.0313,-2.0288,-2.0279,-2.0289,-2.0279,-2.0276,-2.0265,-2.0303,-2.0308,-2.0311,-2.0322,-2.0327,-2.0266,-2.0265,-2.0265,-2.0265,0,-2.0614,-2.0601,-2.0607,-2.0568,-2.0553,-2.055,-2.0504,-2.0494,-2.0465,-2.0435,-2.0424,-2.0391,-2.0364,-2.036,-2.0333,-2.0347,-2.0338,-2.0312,-2.0281,-2.0322,-2.0332,-2.0336,-2.027,-2.0269,-2.0268,-2.0267,0,0,-2.0711,-2.0643,-2.0646,-2.0626,-2.058,-2.057,-2.0563,-2.0535,-2.0527,-2.05,-2.0493,-2.0469,-2.0444,-2.0426,-2.0396,-2.0395,-2.0426,-2.0369,-2.0368,-2.038,-2.0437,-2.0456,-2.0462,-2.0405,-2.0405,-2.0406,-2.0439,0,-2.0755,-2.074,-2.0697,-2.0695,-2.0682,-2.063,-2.0624,-2.0595,-2.0566,-2.055,-2.0518,-2.0501,-2.047,-2.0459,-2.0456,-2.0423,-2.0436,-2.042,-2.0396,-2.0396,-2.0406,-2.0467,-2.0488,-2.0521,-2.0443,-2.0443,-2.0444,0,-2.0806,-2.078,-2.0776,-2.0727,-2.072,-2.0715,-2.0684,-2.067,-2.0634,-2.0613,-2.0592,-2.0556,-2.0545,-2.0516,-2.0499,-2.0488,-2.0476,-2.0457,-2.0457,-2.0454,-2.0423,-2.0464,-2.0531,-2.0536,-2.045,-2.0449,-2.0449,0,-2.0875,-2.0839,-2.0831,-2.0816,-2.0759,-2.0757,-2.0733,-2.0696,-2.0681,-2.0654,-2.0643,-2.0616,-2.0601,-2.0579,-2.0537,-2.052,-2.0524,-2.0492,-2.0505,-2.0506,-2.0509,-2.0509,-2.0574,-2.0502,-2.0502,-2.0501,-2.0501,0,-2.0929,-2.0928,-2.0861,-2.0857,-2.0853,-2.0803,-2.0801,-2.0772,-2.0739,-2.0727,-2.0681,-2.0671,-2.0615,-2.0598,-2.0565,-2.0554,-2.0548,-2.053,-2.0521,-2.0534,-2.0536,-2.0525,-2.0522,-2.0503,-2.0502,-2.0502,-2.0502,0,-2.1007,-2.0962,-2.0949,-2.0895,-2.0882,-2.0881,-2.0835,-2.0827,-2.0794,-2.0779,-2.0773,-2.0721,-2.0698,-2.0653,-2.0618,-2.0595,-2.0591,-2.0576,-2.0603,-2.0598,-2.0613,-2.0612,-2.0673,-2.0677,-2.0604,-2.0604,-2.0605,0,-2.1044,-2.1042,-2.0986,-2.0974,-2.0952,-2.0934,-2.0917,-2.0866,-2.0851,-2.0808,-2.0805,-2.0778,-2.0754,-2.0719,-2.0678,-2.065,-2.0633,-2.0656,-2.0629,-2.0641,-2.0632,-2.0632,-2.0631,-2.0663,-2.0664,-2.0665,-2.0665,0,-2.1115,-2.1091,-2.1069,-2.1038,-2.1019,-2.0992,-2.0963,-2.0956,-2.0898,-2.0883,-2.0858,-2.0839,-2.0801,-2.0774,-2.0739,-2.0714,-2.068,-2.0674,-2.0675,-2.0688,-2.0703,-2.0694,-2.062,-2.0673,-2.0672,-2.0672,-2.0671,-2.0671,-2.1172,-2.1167,-2.1126,-2.1102,-2.1074,-2.1047,-2.1036,-2.1,-2.0978,-2.0943,-2.0914,-2.089,-2.0851,-2.0801,-2.0777,-2.0757,-2.0741,-2.0744,-2.0744,-2.0746,-2.075,-2.0706,-2.0751,-2.0751,-2.0751,-2.075,-2.075,0,-2.1239,-2.121,-2.1188,-2.1147,-2.1127,-2.1095,-2.106,-2.1045,-2.1025,-2.0991,-2.0967,-2.0936,-2.0909,-2.0864,-2.0833,-2.0825,-2.0809,-2.0819,-2.0819,-2.0813,-2.0767,-2.0769,-2.0832,-2.0832,-2.0832,-2.0832,-2.0832,-2.0832,-2.1272,-2.126,-2.1231,-2.1204,-2.1174,-2.115,-2.1132,-2.1106,-2.1078,-2.1046,-2.1022,-2.0993,-2.0954,-2.0918,-2.0891,-2.0878,-2.0868,-2.0883,-2.0866,-2.0824,-2.0817,-2.0809,-2.081,-2.0882,-2.0882,-2.0913,-2.0913,-2.0913]}]]